GW1200 Weather Reports


Display with metric or nautical units.
time (UTC)temp
F
wind
direction
speed
MPH
gust
MPH
rain 1hr
in
rain 24hr
in
rain mn
in
humidity
%
barometer
mb
20260508213006 75 63 1.0 2.0 0.00 0.00 0.00 54 4248.7
20260508212005 75 179 2.0 2.0 0.00 0.00 0.00 57 4248.7
20260508211003 77 277 2.0 3.0 0.00 0.00 0.00 50 4248.8
20260508210003 76 81 1.0 2.0 0.00 0.00 0.00 51 4248.9
20260508205002 76 277 2.0 2.0 0.00 0.00 0.00 50 4248.9
20260508204001 76 9 2.0 2.0 0.00 0.00 0.00 53 4248.9
20260508202959 75 275 2.0 2.0 0.00 0.00 0.00 49 4248.9
20260508201959 76 205 5.0 7.0 0.00 0.00 0.00 50 4249.1
20260508200958 75 7 1.0 1.0 0.00 0.00 0.00 52 4249.4
20260508195956 76 325 0.0 1.0 0.00 0.00 0.00 50 4249.5
20260508194955 75 155 3.0 5.0 0.00 0.00 0.00 54 4249.3
20260508193950 74 306 1.0 1.0 0.00 0.00 0.00 53 4249.5
20260508192949 74 265 1.0 2.0 0.00 0.00 0.00 53 4249.7
20260508191949 74 220 3.0 3.0 0.00 0.00 0.00 52 4250.0
20260508190948 72 30 2.0 2.0 0.00 0.00 0.00 56 4249.8
20260508185947 72 32 2.0 2.0 0.00 0.00 0.00 57 4250.0
20260508184942 73 278 1.0 1.0 0.00 0.00 0.00 56 4250.2
20260508183942 72 313 1.0 2.0 0.00 0.00 0.00 56 4250.5
20260508182940 70 14 2.0 2.0 0.00 0.00 0.00 60 4250.4
20260508181937 70 305 0.0 0.0 0.00 0.00 0.00 55 4250.4
20260508180932 70 39 0.0 0.0 0.00 0.00 0.00 58 4250.8
20260508175930 71 66 3.0 3.0 0.00 0.00 0.00 55 4251.0
20260508174925 72 345 2.0 2.0 0.00 0.00 0.00 53 4250.9
20260508173924 70 10 1.0 1.0 0.00 0.00 0.00 53 4251.0
20260508172923 71 77 3.0 5.0 0.00 0.00 0.00 56 4251.4
20260508171923 72 56 2.0 2.0 0.00 0.00 0.00 56 4251.7
20260508170921 71 345 1.0 2.0 0.00 0.00 0.00 55 4252.5
20260508165921 71 307 2.0 2.0 0.00 0.00 0.00 51 4252.6
20260508164920 68 45 2.0 2.0 0.00 0.00 0.00 58 4252.6
20260508163915 69 44 3.0 3.0 0.00 0.00 0.00 62 4252.7
20260508162914 68 29 4.0 5.0 0.00 0.00 0.00 59 4253.0
20260508161914 68 58 1.0 2.0 0.00 0.00 0.00 60 4253.2
20260508160914 69 83 3.0 5.0 0.00 0.00 0.00 59 4252.8
20260508155909 68 73 1.0 2.0 0.00 0.00 0.00 57 4253.1
20260508154909 68 71 1.0 2.0 0.00 0.00 0.00 64 4253.2
20260508153909 67 70 2.0 3.0 0.00 0.00 0.00 66 4253.4
20260508152908 66 17 3.0 5.0 0.00 0.00 0.00 68 4253.6
20260508151907 66 30 3.0 3.0 0.00 0.00 0.00 68 4253.4
20260508150906 65 86 2.0 3.0 0.00 0.00 0.00 69 4253.3
20260508145904 66 50 2.0 2.0 0.00 0.00 0.00 71 4253.4
20260508144903 65 44 3.0 5.0 0.00 0.00 0.00 70 4253.5
20260508143858 64 48 2.0 2.0 0.00 0.00 0.00 78 4253.6
20260508142858 64 66 2.0 2.0 0.00 0.00 0.00 76 4253.9
20260508141857 63 44 2.0 3.0 0.00 0.00 0.00 78 4254.2
20260508140852 62 48 2.0 2.0 0.00 0.00 0.00 81 4254.1
20260508135850 61 47 1.0 1.0 0.00 0.00 0.00 84 4254.1
20260508134849 59 43 2.0 2.0 0.00 0.00 0.00 87 4254.1
20260508133848 58 27 1.0 1.0 0.00 0.00 0.00 91 4254.4
20260508132848 56 14 2.0 2.0 0.00 0.00 0.00 96 4254.4
20260508131843 56 39 1.0 1.0 0.00 0.00 0.00 96 4254.3
20260508130841 55 38 1.0 1.0 0.00 0.00 0.00 99 4254.2
20260508125840 54 22 1.0 1.0 0.00 0.00 0.00 99 4254.2
20260508124840 54 18 3.0 3.0 0.00 0.00 0.00 99 4254.0
20260508123835 53 21 0.0 0.0 0.00 0.00 0.00 99 4254.0
20260508122835 53 242 0.0 0.0 0.00 0.00 0.00 99 4254.0
20260508121835 50 237 1.0 2.0 0.00 0.00 0.00 99 4253.9
20260508120831 49 230 1.0 1.0 0.00 0.00 0.00 99 4253.8
20260508115826 47 235 1.0 1.0 0.00 0.00 0.00 99 4253.8
20260508114825 46 213 1.0 1.0 0.00 0.00 0.00 99 4253.8
20260508113825 46 236 2.0 2.0 0.00 0.00 0.00 99 4253.8
20260508112825 46 228 2.0 2.0 0.00 0.00 0.00 99 4253.7
20260508111825 46 226 2.0 2.0 0.00 0.00 0.00 99 4253.5
20260508110825 46 232 2.0 2.0 0.00 0.00 0.00 99 4253.3
20260508105822 46 231 2.0 2.0 0.00 0.00 0.00 99 4253.4
20260508104822 46 240 2.0 2.0 0.00 0.00 0.00 99 4253.3
20260508103822 46 229 2.0 2.0 0.00 0.00 0.00 99 4253.2
20260508102817 46 254 2.0 2.0 0.00 0.00 0.00 99 4253.1
20260508101817 46 229 2.0 2.0 0.00 0.00 0.00 99 4253.0
20260508100812 46 242 2.0 2.0 0.00 0.00 0.00 99 4252.7
20260508095812 47 221 2.0 2.0 0.00 0.00 0.00 99 4252.6
20260508094812 47 216 1.0 1.0 0.00 0.00 0.00 99 4252.6
20260508093812 47 225 1.0 2.0 0.00 0.00 0.00 99 4252.7
20260508092807 47 223 1.0 1.0 0.00 0.00 0.00 99 4252.6
20260508091803 48 233 1.0 1.0 0.00 0.00 0.00 99 4252.3
20260508090803 48 237 1.0 2.0 0.00 0.00 0.00 99 4252.4
20260508085802 48 225 2.0 2.0 0.00 0.00 0.00 99 4252.1
20260508084801 48 227 1.0 1.0 0.00 0.00 0.00 99 4252.3
20260508083756 48 223 1.0 2.0 0.00 0.00 0.00 99 4252.0
20260508082753 48 230 2.0 2.0 0.00 0.00 0.00 99 4251.9
20260508081748 49 226 2.0 2.0 0.00 0.00 0.00 99 4252.0
20260508080748 49 224 2.0 2.0 0.00 0.00 0.00 99 4252.0
20260508075748 49 229 1.0 1.0 0.00 0.00 0.00 99 4252.0
20260508074748 49 222 1.0 1.0 0.00 0.00 0.00 99 4252.0
20260508073748 49 222 1.0 1.0 0.00 0.00 0.00 99 4252.4
20260508072748 49 228 1.0 1.0 0.00 0.00 0.00 99 4252.3
20260508071748 50 223 1.0 1.0 0.00 0.00 0.00 99 4251.9
20260508070743 50 218 1.0 1.0 0.00 0.00 0.00 99 4252.8
20260508065738 50 245 1.0 1.0 0.00 0.00 0.00 99 4252.3
20260508064734 51 233 1.0 1.0 0.00 0.00 0.00 99 4252.3
20260508063729 50 218 2.0 2.0 0.00 0.00 0.00 99 4252.4
20260508062729 51 228 1.0 1.0 0.00 0.00 0.00 99 4252.7
20260508061729 51 229 2.0 2.0 0.00 0.00 0.00 99 4252.5
20260508060729 51 226 1.0 1.0 0.00 0.00 0.00 99 4252.7
20260508055727 51 227 1.0 2.0 0.00 0.00 0.00 99 4252.8
20260508054727 51 228 1.0 2.0 0.00 0.00 0.00 99 4252.9
20260508053728 51 220 3.0 3.0 0.00 0.00 0.00 99 4252.8
20260508052728 51 245 1.0 1.0 0.00 0.00 0.00 99 4252.8
20260508051727 52 233 2.0 2.0 0.00 0.00 0.00 98 4252.8
20260508050725 52 238 0.0 1.0 0.00 0.00 0.00 98 4252.7
20260508045723 52 235 1.0 1.0 0.00 0.20 0.20 98 4252.8
20260508044719 52 215 2.0 2.0 0.00 0.20 0.20 98 4252.6
20260508043717 52 221 2.0 2.0 0.00 0.20 0.20 98 4253.1
20260508042717 52 248 0.0 0.0 0.00 0.20 0.20 97 4252.9
20260508041717 53 228 1.0 2.0 0.00 0.20 0.20 98 4252.7
20260508040716 53 234 0.0 1.0 0.00 0.20 0.20 97 4252.5
20260508035711 53 228 1.0 2.0 0.00 0.20 0.20 97 4252.7
20260508034710 53 231 1.0 2.0 0.00 0.20 0.20 97 4252.8
20260508033710 53 228 2.0 2.0 0.00 0.20 0.20 98 4252.8
20260508032706 54 223 1.0 1.0 0.00 0.20 0.20 97 4252.7
20260508031706 54 224 1.0 1.0 0.00 0.20 0.20 96 4252.6
20260508030704 54 220 2.0 2.0 0.00 0.20 0.20 96 4252.7
20260508025704 55 228 1.0 1.0 0.00 0.20 0.20 95 4252.6
20260508024702 55 229 1.0 1.0 0.00 0.20 0.20 94 4252.4
20260508023701 55 233 0.0 1.0 0.00 0.20 0.20 92 4252.4
20260508022700 56 208 2.0 2.0 0.00 0.20 0.20 91 4252.3
20260508021700 57 239 2.0 2.0 0.00 0.20 0.20 90 4252.3
20260508020659 57 225 1.0 2.0 0.00 0.20 0.20 89 4252.0
20260508015654 57 220 1.0 1.0 0.00 0.20 0.20 88 4252.1
20260508014653 58 225 2.0 2.0 0.00 0.20 0.20 86 4252.0
20260508013652 59 223 1.0 1.0 0.00 0.20 0.20 83 4251.8
20260508012646 59 223 1.0 1.0 0.00 0.20 0.20 78 4251.9
20260508011641 60 224 0.0 0.0 0.00 0.20 0.20 74 4251.6
20260508010641 60 207 0.0 1.0 0.00 0.20 0.20 73 4251.5
20260508005641 61 224 0.0 1.0 0.00 0.20 0.20 74 4251.6
20260508004639 62 245 1.0 1.0 0.00 0.20 0.20 71 4251.4
20260508003639 62 229 1.0 1.0 0.00 0.20 0.20 68 4251.2
20260508002638 63 229 2.0 2.0 0.00 0.20 0.20 69 4251.4
20260508001637 64 241 0.0 1.0 0.00 0.20 0.20 65 4251.4
20260508000635 64 235 1.0 1.0 0.00 0.20 0.20 62 4251.1
20260507235635 64 238 2.0 2.0 0.00 0.20 0.20 63 4251.1
20260507234635 65 55 1.0 1.0 0.00 0.20 0.20 61 4251.0
20260507233635 66 265 1.0 1.0 0.00 0.20 0.20 63 4251.0
20260507232635 66 325 0.0 0.0 0.00 0.20 0.20 62 4250.9
20260507231635 66 317 1.0 1.0 0.00 0.20 0.20 61 4250.9
20260507230634 66 357 0.0 1.0 0.00 0.20 0.20 58 4250.7
20260507225631 66 273 1.0 1.0 0.00 0.20 0.20 57 4250.9
20260507224629 66 359 4.0 5.0 0.00 0.20 0.20 58 4251.0
20260507223628 67 2 0.0 1.0 0.00 0.20 0.20 60 4250.9
20260507222627 67 2 3.0 3.0 0.00 0.20 0.20 58 4251.1
20260507221626 67 0 0.0 0.0 0.00 0.20 0.20 57 4251.1
20260507220626 67 1 4.0 6.0 0.00 0.20 0.20 59 4251.0
20260507215625 67 4 8.0 9.0 0.00 0.20 0.20 58 4250.7
20260507214625 67 8 7.0 8.0 0.00 0.20 0.20 59 4250.7